Weather History for Oxford, NC

Change the Weather History Date:

Wednesday, May 8, 2013

  Actual Average (KTDF) Record (KTDF)
Temperature  
Mean Temperature 57 °F -  
Max Temperature 66 °F 76 °F 92 °F (1986)
Min Temperature 48 °F 50 °F 33 °F (1992)
Degree Days  
Heating Degree Days 8    
Growing Degree Days 7 (Base 50)    
Moisture  
Dew Point 53 °F    
Average Humidity 85    
Maximum Humidity 96    
Minimum Humidity 61    
Precipitation  
Precipitation 0.03 in - - ()
Sea Level Pressure  
Sea Level Pressure 29.97 in    
Wind  
Wind Speed 2 mph (SW)    
Max Wind Speed 12 mph    
Max Gust Speed 16 mph    
Visibility 9 miles    
Events Rain    
Averages and records for this station are not official NWS values.
T = Trace of Precipitation, MM = Missing Value Source: NWS Daily Summary

Daily Weather History Graph

Daily Weather History Graph

Search for Another Location

Airport:

Trip Planner

Search our weather history database for the weather conditions in past years. The results will help you decide how hot, cold, wet, or windy it might be!

Date:

Astronomy

May. 08, 2013 Rise Set
Actual Time 6:13 AM EDT 8:08 PM EDT
Civil Twilight 5:45 AM EDT 8:36 PM EDT
Nautical Twilight 5:11 AM EDT 9:10 PM EDT
Astronomical Twilight 4:34 AM EDT 9:47 PM EDT
Moon 5:18 AM EDT (5/8) 7:06 PM EDT (5/8)
Length of Visible Light 14h 51m
Length of Day
13h 54m
Waning Crescent, 2% of the Moon is Illuminated
May 8
Waning Crescent
May 9
New
May 18
First Quarter
May 25
Full
May 31
Last Quarter

Hourly Weather History & Observations

Time (EDT) Temp. Dew Point Humidity Pressure Visibility Wind Dir Wind Speed Gust Speed Precip Events Conditions
12:15 AM 51.3 °F 49.3 °F 93% 29.95 in 10.0 mi Calm Calm - N/A   Scattered Clouds
12:35 AM 51.3 °F 49.5 °F 94% 29.95 in 10.0 mi Calm Calm - N/A   Scattered Clouds
12:55 AM 50.9 °F 49.1 °F 94% 29.96 in 7.0 mi South 3.5 mph - N/A   Mostly Cloudy
1:15 AM 49.8 °F 48.2 °F 94% 29.95 in 10.0 mi SSW 3.5 mph - N/A   Scattered Clouds
1:35 AM 50.0 °F 48.2 °F 94% 29.94 in 10.0 mi SW 3.5 mph - N/A   Scattered Clouds
1:55 AM 48.6 °F 47.3 °F 95% 29.94 in 7.0 mi Calm Calm - N/A   Clear
2:15 AM 49.5 °F 48.2 °F 95% 29.94 in 7.0 mi Calm Calm - N/A   Clear
2:35 AM 49.3 °F 48.0 °F 95% 29.93 in 7.0 mi Calm Calm - N/A   Clear
2:55 AM 49.3 °F 47.8 °F 95% 29.93 in 7.0 mi Calm Calm - N/A   Clear
3:15 AM 49.6 °F 48.4 °F 95% 29.93 in 7.0 mi Calm Calm - N/A   Clear
3:35 AM 49.5 °F 48.2 °F 95% 29.94 in 10.0 mi Calm Calm - N/A   Clear
3:55 AM 50.2 °F 48.9 °F 95% 29.94 in 10.0 mi Calm Calm - N/A   Clear
4:15 AM 50.2 °F 49.1 °F 96% 29.94 in 10.0 mi Calm Calm - N/A   Mostly Cloudy
4:35 AM 50.7 °F 49.3 °F 95% 29.94 in 10.0 mi Calm Calm - N/A Rain Light Rain
5:15 AM 51.1 °F 49.6 °F 95% 29.94 in 7.0 mi Calm Calm - N/A Rain Rain
5:35 AM 50.9 °F 49.5 °F 95% 29.94 in 7.0 mi Calm Calm - N/A   Light Drizzle
5:55 AM 51.1 °F 50.0 °F 96% 29.94 in 5.0 mi Calm Calm - N/A   Mostly Cloudy
6:15 AM 51.4 °F 50.2 °F 95% 29.95 in 7.0 mi Calm Calm - N/A   Overcast
6:55 AM 51.8 °F 50.4 °F 95% 29.97 in 7.0 mi SSW 3.5 mph - N/A   Overcast
7:15 AM 52.0 °F 50.5 °F 95% 29.97 in 7.0 mi Calm Calm - N/A   Mostly Cloudy
7:35 AM 52.7 °F 51.3 °F 95% 29.98 in 5.0 mi Calm Calm - N/A   Mostly Cloudy
7:55 AM 52.9 °F 51.4 °F 95% 29.99 in 5.0 mi Calm Calm - N/A   Overcast
8:15 AM 53.1 °F 51.8 °F 95% 29.99 in 5.0 mi Calm Calm - N/A   Overcast
8:35 AM 53.8 °F 52.3 °F 95% 29.99 in 7.0 mi Calm Calm - N/A   Overcast
8:55 AM 55.2 °F 53.1 °F 92% 29.99 in 10.0 mi Calm Calm - N/A   Mostly Cloudy
9:15 AM 55.6 °F 53.1 °F 91% 30.00 in 10.0 mi Calm Calm - N/A   Mostly Cloudy
9:35 AM 57.0 °F 53.4 °F 88% 30.00 in 10.0 mi SW 3.5 mph - N/A   Overcast
9:55 AM 58.1 °F 53.8 °F 86% 30.01 in 10.0 mi SW 4.6 mph - N/A   Overcast
10:15 AM 58.3 °F 53.6 °F 84% 30.01 in 10.0 mi SW 4.6 mph - N/A   Overcast
10:35 AM 59.0 °F 53.6 °F 82% 30.01 in 10.0 mi Calm Calm - N/A   Overcast
10:55 AM 60.1 °F 53.6 °F 79% 30.01 in 10.0 mi South 3.5 mph - N/A   Overcast
11:15 AM 60.3 °F 53.8 °F 79% 30.02 in 10.0 mi Calm Calm - N/A   Overcast
11:35 AM 60.3 °F 54.0 °F 80% 30.02 in 10.0 mi Calm Calm - N/A   Overcast
11:55 AM 60.6 °F 55.0 °F 82% 30.02 in 10.0 mi South 4.6 mph - N/A   Overcast
12:15 PM 62.2 °F 54.5 °F 76% 30.01 in 10.0 mi SSE 5.8 mph - N/A   Overcast
12:35 PM 62.6 °F 55.2 °F 77% 30.00 in 10.0 mi SSE 3.5 mph - N/A   Overcast
12:55 PM 63.7 °F 53.1 °F 68% 29.99 in 10.0 mi South 5.8 mph - N/A   Overcast
1:15 PM 63.9 °F 53.1 °F 68% 29.99 in 10.0 mi SSE 4.6 mph - N/A   Overcast
1:35 PM 66.0 °F 52.3 °F 61% 29.98 in 10.0 mi South 9.2 mph - N/A   Mostly Cloudy
1:55 PM 66.2 °F 53.4 °F 63% 29.97 in 10.0 mi South 11.5 mph - N/A   Mostly Cloudy
2:15 PM 66.4 °F 53.4 °F 63% 29.97 in 10.0 mi SSW 10.4 mph 16.1 mph N/A   Mostly Cloudy
2:35 PM 66.4 °F 53.1 °F 62% 29.96 in 10.0 mi South 8.1 mph - N/A   Mostly Cloudy
2:55 PM 64.4 °F 55.0 °F 72% 29.97 in 7.0 mi SW 8.1 mph - 0.01 in Rain Light Rain
3:15 PM 65.3 °F 53.6 °F 66% 29.96 in 10.0 mi SW 6.9 mph - N/A   Overcast
3:35 PM 64.8 °F 53.8 °F 68% 29.96 in 10.0 mi WSW 3.5 mph - N/A Rain Light Rain
3:55 PM 64.8 °F 55.2 °F 71% 29.95 in 10.0 mi WSW 3.5 mph - N/A   Overcast
4:15 PM 64.4 °F 57.4 °F 78% 29.95 in 10.0 mi Calm Calm - N/A   Overcast
4:35 PM 64.4 °F 57.9 °F 79% 29.95 in 10.0 mi Calm Calm - N/A   Overcast
4:55 PM 64.8 °F 54.9 °F 70% 29.96 in 10.0 mi SW 4.6 mph - N/A   Overcast
5:15 PM 65.3 °F 54.3 °F 68% 29.95 in 10.0 mi Calm Calm - N/A Rain Light Rain
5:35 PM 65.3 °F 54.7 °F 68% 29.94 in 10.0 mi South 3.5 mph - N/A   Overcast
5:55 PM 65.3 °F 56.1 °F 72% 29.94 in 10.0 mi South 3.5 mph - N/A   Overcast
6:15 PM 64.9 °F 56.1 °F 73% 29.94 in 10.0 mi Calm Calm - N/A Rain Light Rain
6:35 PM 64.6 °F 57.4 °F 77% 29.94 in 10.0 mi Calm Calm - N/A   Overcast
6:55 PM 63.7 °F 57.6 °F 80% 29.94 in 10.0 mi Calm Calm - N/A   Light Drizzle
7:15 PM 63.1 °F 57.2 °F 81% 29.94 in 10.0 mi Calm Calm - N/A   Overcast
7:35 PM 62.8 °F 58.1 °F 85% 29.95 in 10.0 mi Calm Calm - N/A   Overcast
7:55 PM 61.9 °F 59.0 °F 90% 29.97 in 7.0 mi NW 4.6 mph - 0.01 in Rain Heavy Rain
8:15 PM 61.0 °F 58.5 °F 91% 29.97 in 10.0 mi NNW 3.5 mph - N/A   Mostly Cloudy
8:35 PM 60.6 °F 58.5 °F 93% 29.98 in 10.0 mi NW 3.5 mph - N/A Rain Light Rain
8:55 PM 60.1 °F 58.1 °F 93% 29.98 in 10.0 mi Calm Calm - 0.01 in   Light Drizzle
9:15 PM 59.9 °F 57.7 °F 93% 29.99 in 10.0 mi NW 3.5 mph - N/A   Mostly Cloudy
9:35 PM 59.5 °F 57.6 °F 93% 29.99 in 10.0 mi WNW 3.5 mph - N/A   Mostly Cloudy
9:55 PM 59.4 °F 57.6 °F 94% 30.00 in 10.0 mi WNW 3.5 mph - N/A   Mostly Cloudy
10:15 PM 59.0 °F 57.2 °F 94% 30.01 in 10.0 mi Calm Calm - N/A   Mostly Cloudy
10:35 PM 58.5 °F 56.7 °F 94% 30.01 in 10.0 mi Calm Calm - N/A   Scattered Clouds
10:55 PM 58.1 °F 56.3 °F 94% 30.01 in 10.0 mi Calm Calm - N/A   Scattered Clouds
11:15 PM 57.7 °F 55.9 °F 94% 30.01 in 7.0 mi Calm Calm - N/A   Clear
11:35 PM 57.2 °F 55.6 °F 94% 30.00 in 5.0 mi Calm Calm - N/A   Clear